Weather reports worldwide

Advertisment
Las Palmas De Gran Canaria, Spain (60030): temperature & dewpoint: 12.06.2019 03:00:00 - 18.06.2019 03:00:00 (WEST)Las Palmas De Gran Canaria, Spain (60030): wind speed: 12.06.2019 03:00:00 - 18.06.2019 03:00:00 (WEST)Las Palmas De Gran Canaria, Spain (60030): wind direction: 12.06.2019 03:00:00 - 18.06.2019 03:00:00 (WEST)Las Palmas De Gran Canaria, Spain (60030): reduced air pressure: 12.06.2019 03:00:00 - 18.06.2019 03:00:00 (WEST)Las Palmas De Gran Canaria, Spain (60030): visibility: 12.06.2019 03:00:00 - 18.06.2019 03:00:00 (WEST)
Date & Time tt [°C] td [°C] ff [km/h] ff [kn] dd ppp [hPa] vv [km]
18.06.2019 03:00:00 - - - - - - -
18.06.2019 02:00:00 19,9 15,4 8 4 NNW 1018,8 10
18.06.2019 01:00:00 20,5 16,4 5 3 NW 1019,1 18
18.06.2019 00:00:00 20,8 16,5 9 5 NW 1019,4 10
17.06.2019 23:00:00 21,2 16,9 4 2 - 1019,3 10
17.06.2019 22:00:00 21,5 16,7 8 4 S 1019,2 18
17.06.2019 21:00:00 22,0 15,7 11 6 SSE 1018,9 10
17.06.2019 20:00:00 22,3 16,5 11 6 SE 1018,8 10
17.06.2019 19:00:00 22,4 16,4 11 6 SE 1018,9 10
17.06.2019 18:00:00 23,2 16,1 13 7 SE 1018,8 10
17.06.2019 17:00:00 23,4 16,0 15 8 SE 1019,1 10
17.06.2019 16:00:00 23,3 15,7 15 8 SE 1019,4 10
17.06.2019 15:00:00 23,0 15,8 13 7 ESE 1019,7 10
17.06.2019 14:00:00 22,9 15,7 13 7 SE 1020,0 10
17.06.2019 13:00:00 22,2 15,8 11 6 ESE 1020,3 10
17.06.2019 12:00:00 22,4 15,5 11 6 E 1020,2 10
17.06.2019 11:00:00 21,3 15,3 11 6 E 1020,0 10
17.06.2019 10:00:00 21,4 14,8 11 6 E 1019,9 20
17.06.2019 09:00:00 20,7 14,5 4 2 - 1019,8 10
17.06.2019 08:00:00 18,5 13,2 8 4 WNW 1019,5 10
17.06.2019 07:00:00 17,3 12,8 8 4 NW 1019,4 25
17.06.2019 06:00:00 16,9 12,5 8 4 WNW 1019,6 10
17.06.2019 05:00:00 17,1 12,1 9 5 W 1019,8 10
17.06.2019 04:00:00 17,7 11,8 11 6 WNW 1020,0 10
17.06.2019 03:00:00 18,0 12,3 8 4 WNW 1020,5 10
17.06.2019 02:00:00 18,1 12,4 8 4 WNW 1021,2 10
17.06.2019 01:00:00 18,8 13,1 9 5 NNW 1021,8 10
17.06.2019 00:00:00 19,0 13,6 9 5 NNW 1021,8 10
16.06.2019 23:00:00 19,7 14,2 16 9 NNE 1021,4 10
16.06.2019 22:00:00 20,0 14,1 16 9 N 1021,1 10
16.06.2019 21:00:00 20,3 14,2 21 11 NNE 1020,8 10
16.06.2019 20:00:00 21,1 13,9 24 13 NNE 1020,4 10
16.06.2019 19:00:00 21,9 14,2 22 12 NNE 1020,3 18
16.06.2019 18:00:00 22,2 14,2 24 13 NNE 1020,2 10
16.06.2019 17:00:00 22,7 14,5 24 13 NNE 1020,3 10
16.06.2019 16:00:00 22,4 13,9 22 12 NE 1020,9 10
16.06.2019 15:00:00 22,1 14,3 21 11 NE 1021,4 10
16.06.2019 14:00:00 22,2 14,3 18 10 NE 1021,7 10
16.06.2019 13:00:00 21,6 14,1 21 11 NE 1022,0 18
16.06.2019 12:00:00 21,8 14,2 21 11 ENE 1022,0 10
16.06.2019 11:00:00 22,6 14,4 21 11 NE 1021,5 10
16.06.2019 10:00:00 21,1 14,3 18 10 NNE 1021,2 20
16.06.2019 09:00:00 20,4 12,5 9 5 N 1021,1 10
16.06.2019 08:00:00 17,3 11,9 9 5 WNW 1020,7 10
16.06.2019 07:00:00 17,3 12,5 11 6 WNW 1020,3 20
16.06.2019 06:00:00 17,5 12,5 11 6 NW 1019,8 10
16.06.2019 05:00:00 17,9 12,3 8 4 NW 1019,8 10
16.06.2019 04:00:00 18,7 13,5 9 5 N 1020,1 10
16.06.2019 03:00:00 19,3 14,0 9 5 NNE 1020,5 10
16.06.2019 02:00:00 19,3 13,6 11 6 N 1021,0 10
16.06.2019 01:00:00 19,7 13,9 16 9 NNE 1021,6 17
16.06.2019 00:00:00 19,8 13,6 18 10 NNE 1021,8 10
15.06.2019 23:00:00 19,7 13,6 21 11 NNE 1021,5 10
15.06.2019 22:00:00 20,1 13,7 21 11 NNE 1020,8 17
15.06.2019 21:00:00 20,3 13,4 24 13 NNE 1020,2 10
15.06.2019 20:00:00 20,6 13,8 24 13 NNE 1019,9 10
15.06.2019 19:00:00 20,9 14,0 26 14 NNE 1019,6 10
15.06.2019 18:00:00 21,3 13,7 24 13 NNE 1019,8 10
15.06.2019 17:00:00 21,3 13,6 18 10 NNE 1020,1 10
15.06.2019 16:00:00 21,2 12,8 16 9 NNE 1020,4 18
15.06.2019 15:00:00 21,5 13,2 16 9 NE 1020,7 10
15.06.2019 14:00:00 22,0 13,4 21 11 NE 1020,9 10
15.06.2019 13:00:00 22,5 13,7 22 12 NNE 1020,9 18
15.06.2019 12:00:00 22,3 12,7 24 13 NE 1021,3 10
15.06.2019 11:00:00 22,0 12,1 21 11 ENE 1021,0 10
15.06.2019 10:00:00 21,9 10,3 15 8 NNE 1020,8 22
15.06.2019 09:00:00 20,8 12,0 21 11 NNE 1020,5 10
15.06.2019 08:00:00 19,4 12,6 22 12 NNE 1020,1 10
15.06.2019 07:00:00 18,8 13,1 15 8 NNE 1019,9 10
15.06.2019 06:00:00 18,8 13,3 11 6 N 1020,0 10
15.06.2019 05:00:00 18,7 12,4 11 6 N 1020,0 10
15.06.2019 04:00:00 18,3 12,4 15 8 N 1020,0 10
15.06.2019 03:00:00 19,1 12,4 11 6 N 1020,4 10
15.06.2019 02:00:00 19,1 12,4 11 6 NNW 1020,8 10
15.06.2019 01:00:00 18,5 12,4 8 4 NNW 1021,6 12
15.06.2019 00:00:00 18,4 12,5 9 5 NNW 1021,7 10
14.06.2019 23:00:00 19,2 13,2 15 8 N 1021,4 10
14.06.2019 22:00:00 20,1 13,1 22 12 N 1020,9 15
14.06.2019 21:00:00 20,3 13,7 24 13 NNE 1020,4 10
14.06.2019 20:00:00 20,5 14,1 24 13 NNE 1020,1 10
14.06.2019 19:00:00 21,4 12,5 28 15 NNE 1019,9 20
14.06.2019 18:00:00 21,6 11,4 28 15 NNE 1019,9 10
14.06.2019 17:00:00 21,5 12,6 22 12 NNE 1019,9 10
14.06.2019 16:00:00 20,8 14,1 15 8 NE 1020,1 10
14.06.2019 15:00:00 20,7 13,5 21 11 NE 1020,2 10
14.06.2019 14:00:00 21,6 14,3 24 13 NNE 1020,6 10
14.06.2019 13:00:00 21,3 14,1 21 11 NNE 1020,9 25
14.06.2019 12:00:00 21,4 13,9 18 10 NNE 1020,8 10
14.06.2019 11:00:00 20,4 13,4 15 8 N 1020,8 10
14.06.2019 10:00:00 20,3 13,1 16 9 NNE 1020,2 25
14.06.2019 09:00:00 20,0 11,4 15 8 N 1019,8 10
14.06.2019 08:00:00 18,3 12,4 11 6 NNW 1019,5 10
14.06.2019 07:00:00 17,5 12,6 9 5 NNW 1019,0 18
14.06.2019 06:00:00 17,6 12,3 13 7 NNW 1018,4 10
14.06.2019 05:00:00 17,7 12,1 9 5 NNW 1018,4 10
14.06.2019 04:00:00 17,6 10,9 13 7 N 1018,1 10
14.06.2019 03:00:00 18,2 11,7 15 8 NNW 1018,5 10
14.06.2019 02:00:00 19,1 12,7 16 9 N 1018,8 10
14.06.2019 01:00:00 19,1 13,0 16 9 N 1019,5 10
14.06.2019 00:00:00 19,6 13,1 18 10 N 1019,7 10
13.06.2019 23:00:00 19,8 12,9 21 11 N 1019,6 10
13.06.2019 22:00:00 19,7 12,9 21 11 N 1019,2 10
13.06.2019 21:00:00 20,2 12,8 18 10 N 1018,3 10
13.06.2019 20:00:00 21,4 12,9 29 16 NNE 1017,8 10
13.06.2019 19:00:00 22,0 12,3 26 14 N 1017,6 15
13.06.2019 18:00:00 22,6 12,8 39 21 NNE 1016,8 10
13.06.2019 17:00:00 24,3 12,5 42 23 NNE 1016,8 10
13.06.2019 16:00:00 24,5 12,0 48 26 NNE 1016,8 10
13.06.2019 15:00:00 25,6 11,1 44 24 NNE 1017,0 10
13.06.2019 14:00:00 25,1 11,6 46 25 NNE 1017,2 10
13.06.2019 13:00:00 24,3 10,7 29 16 N 1017,4 18
13.06.2019 12:00:00 22,5 13,1 34 18 NE 1017,6 10
13.06.2019 11:00:00 21,9 11,2 24 13 N 1017,5 10
13.06.2019 10:00:00 21,0 12,5 15 8 NNW 1017,3 18
13.06.2019 09:00:00 20,0 11,7 22 12 N 1016,6 10
13.06.2019 08:00:00 19,4 11,8 13 7 N 1016,0 10
13.06.2019 07:00:00 19,0 12,7 18 10 N 1015,7 10
13.06.2019 06:00:00 18,8 12,9 24 13 N 1015,6 10
13.06.2019 05:00:00 18,9 13,0 16 9 NNW 1015,3 10
13.06.2019 04:00:00 18,6 12,8 22 12 N 1015,7 11
13.06.2019 03:00:00 19,0 11,0 15 8 NNW 1015,9 10
13.06.2019 02:00:00 19,1 12,7 18 10 N 1016,3 10
13.06.2019 01:00:00 19,0 11,4 21 11 N 1016,5 10
13.06.2019 00:00:00 19,2 13,0 26 14 N 1016,7 10
12.06.2019 23:00:00 19,5 13,5 28 15 N 1016,3 10
12.06.2019 22:00:00 19,7 13,3 28 15 N 1015,9 10
12.06.2019 21:00:00 20,3 14,0 29 16 N 1015,4 10
12.06.2019 20:00:00 20,9 14,4 24 13 N 1014,9 10
12.06.2019 19:00:00 22,7 14,4 26 14 N 1014,3 15
12.06.2019 18:00:00 23,1 14,5 37 20 N 1014,2 10
12.06.2019 17:00:00 24,5 12,3 35 19 N 1014,2 10
12.06.2019 16:00:00 24,8 12,0 39 21 NNE 1014,6 10
12.06.2019 15:00:00 24,3 13,8 44 24 NNE 1014,8 10
12.06.2019 14:00:00 23,6 13,6 35 19 N 1015,3 10
12.06.2019 13:00:00 21,6 15,0 29 16 N 1016,4 10
12.06.2019 12:00:00 20,9 14,4 29 16 N 1016,0 10
12.06.2019 11:00:00 21,4 15,1 35 19 NNW 1015,9 10
12.06.2019 10:00:00 19,4 16,5 31 17 N 1015,8 10
12.06.2019 09:00:00 18,7 16,9 26 14 N 1015,3 10
12.06.2019 08:00:00 20,2 14,1 22 12 NNW 1014,9 10
12.06.2019 07:00:00 19,6 14,8 29 16 NNW 1014,7 15
12.06.2019 06:00:00 18,8 16,0 24 13 N 1014,5 10
12.06.2019 05:00:00 18,5 16,3 24 13 N 1014,7 10
12.06.2019 04:00:00 17,9 16,4 35 19 N 1015,2 7
12.06.2019 03:00:00 18,6 15,7 29 16 N 1015,2 10

tt = temperature
td = dewpoint
ff = wind speed
dd = wind direction
ppp = reduced air pressure
vv = visibility

Next stations